Huntsville Madison, AL

9:27 AM CDT on May 27, 2017 (GMT -0500)
Huntsville Madison

Weather History for KMDQ - February, 2013

Change the Weather History Date:

Wednesday, February 13, 2013

  Actual Average (KHSV) Record (KHSV)
Temperature  
Mean Temperature 42 °F -  
Max Temperature 44 °F 52 °F 82 °F (1962)
Min Temperature 39 °F 32 °F 7 °F (1910)
Degree Days  
Heating Degree Days 24    
Moisture  
Dew Point 36 °F    
Average Humidity 78    
Maximum Humidity 93    
Minimum Humidity 70    
Precipitation  
Precipitation 0.01 in - - ()
Sea Level Pressure  
Sea Level Pressure 29.86 in    
Wind  
Wind Speed 6 mph (West)    
Max Wind Speed 16 mph    
Max Gust Speed 22 mph    
Visibility 8 miles    
Events      
Averages and records for this station are not official NWS values.
T = Trace of Precipitation, MM = Missing Value Source: NWS Daily Summary

Daily Weather History Graph

Daily Weather History Graph

Search for Another Location

Airport or City:

Trip Planner

Search our weather history database for the weather conditions in past years. The results will help you decide how hot, cold, wet, or windy it might be!

Date:

Astronomy

Feb. 13, 2013 Rise Set
Actual Time 6:33 AM CST 5:27 PM CST
Civil Twilight 6:07 AM CST 5:53 PM CST
Nautical Twilight 5:38 AM CST 6:23 PM CST
Astronomical Twilight 5:08 AM CST 6:52 PM CST
Moon 8:13 AM CST (2/13) 9:17 PM CST (2/13)
Length of Visible Light 11h 45m
Length of Day
10h 53m
Waxing Crescent, 14% of the Moon is Illuminated
Feb 13
Waxing Crescent
Feb 17
First Quarter
Feb 25
Full
Mar 4
Last Quarter
Mar 11
New

Hourly Weather History & Observations

Time (CST) Temp. Windchill Dew Point Humidity Pressure Visibility Wind Dir Wind Speed Gust Speed Precip Events Conditions
12:15 AM 44.6 °F 43.1 °F 35.6 °F 71% 29.78 in 10.0 mi NE 3.5 mph - N/A   Overcast
12:35 AM 44.6 °F - 35.6 °F 71% 29.76 in 10.0 mi Calm Calm - N/A   Overcast
12:55 AM 44.6 °F 43.1 °F 37.4 °F 76% 29.75 in 10.0 mi SE 3.5 mph - N/A   Overcast
1:15 AM 44.6 °F - 37.4 °F 76% 29.75 in 10.0 mi Calm Calm - N/A   Overcast
1:35 AM 44.6 °F 43.1 °F 37.4 °F 76% 29.74 in 7.0 mi ESE 3.5 mph - N/A   Light Drizzle
1:55 AM 44.6 °F 43.1 °F 39.2 °F 81% 29.74 in 5.0 mi ESE 3.5 mph - N/A   Drizzle
2:15 AM 42.8 °F 39.3 °F 41.0 °F 93% 29.72 in 7.0 mi SE 5.8 mph - N/A   Overcast
2:35 AM 44.6 °F 39.7 °F 41.0 °F 87% 29.71 in 4.0 mi SE 9.2 mph - N/A   Drizzle
2:55 AM 44.6 °F 40.2 °F 41.0 °F 87% 29.70 in 3.0 mi SE 8.1 mph - N/A   Drizzle
3:15 AM 44.6 °F 42.2 °F 41.0 °F 87% 29.70 in 3.0 mi SSE 4.6 mph - N/A   Drizzle
3:35 AM 44.6 °F 43.1 °F 41.0 °F 87% 29.70 in 3.0 mi SSE 3.5 mph - N/A   Drizzle
3:55 AM 44.6 °F 42.2 °F 41.0 °F 87% 29.70 in 3.0 mi South 4.6 mph - N/A   Drizzle
4:15 AM 44.6 °F - 42.8 °F 93% 29.71 in 3.0 mi Calm Calm - N/A   Drizzle
4:35 AM 44.6 °F - 42.8 °F 93% 29.71 in 2.5 mi Calm Calm - N/A   Drizzle
4:55 AM 44.6 °F - 42.8 °F 93% 29.70 in 2.5 mi Calm Calm - N/A   Drizzle
5:15 AM 44.6 °F 42.2 °F 42.8 °F 93% 29.71 in 2.5 mi South 4.6 mph - 0.01 in   Drizzle
5:35 AM 44.6 °F 40.2 °F 42.8 °F 93% 29.71 in 2.5 mi SSW 8.1 mph - 0.01 in   Heavy Drizzle
5:55 AM 44.6 °F 42.2 °F 42.8 °F 93% 29.72 in 4.0 mi SW 4.6 mph - 0.01 in   Light Drizzle
6:15 AM 44.6 °F 40.2 °F 42.8 °F 93% 29.73 in 5.0 mi SW 8.1 mph 16.1 mph N/A   Overcast
6:35 AM 44.6 °F 37.4 °F 42.8 °F 93% 29.74 in 7.0 mi WSW 16.1 mph 19.6 mph N/A   Overcast
6:55 AM 44.6 °F 38.8 °F 42.8 °F 93% 29.74 in 3.0 mi WSW 11.5 mph 20.7 mph N/A   Drizzle
7:15 AM 44.6 °F 39.2 °F 41.0 °F 87% 29.75 in 4.0 mi WSW 10.4 mph 17.3 mph N/A   Light Drizzle
7:35 AM 44.6 °F 38.1 °F 39.2 °F 81% 29.78 in 10.0 mi WSW 13.8 mph 21.9 mph N/A   Overcast
7:55 AM 42.8 °F 36.6 °F 39.2 °F 87% 29.78 in 10.0 mi WSW 11.5 mph 18.4 mph N/A   Overcast
8:15 AM 42.8 °F 37.0 °F 39.2 °F 87% 29.78 in 10.0 mi WSW 10.4 mph - N/A   Overcast
8:35 AM 42.8 °F 36.6 °F 39.2 °F 87% 29.80 in 10.0 mi WSW 11.5 mph 16.1 mph N/A   Overcast
8:55 AM 42.8 °F 36.6 °F 39.2 °F 87% 29.80 in 10.0 mi West 11.5 mph - N/A   Overcast
9:15 AM 44.6 °F 38.8 °F 37.4 °F 76% 29.81 in 10.0 mi West 11.5 mph - N/A   Overcast
9:35 AM 42.8 °F 37.0 °F 37.4 °F 81% 29.81 in 7.0 mi West 10.4 mph - N/A   Overcast
9:55 AM 44.6 °F 39.7 °F 39.2 °F 81% 29.81 in 10.0 mi West 9.2 mph - N/A   Overcast
10:15 AM 44.6 °F 38.4 °F 37.4 °F 76% 29.82 in 10.0 mi West 12.7 mph 21.9 mph N/A   Overcast
10:35 AM 44.6 °F 38.8 °F 37.4 °F 76% 29.83 in 10.0 mi West 11.5 mph 16.1 mph N/A   Overcast
10:55 AM 44.6 °F 38.8 °F 37.4 °F 76% 29.84 in 10.0 mi West 11.5 mph 19.6 mph N/A   Overcast
11:15 AM 44.6 °F 38.8 °F 37.4 °F 76% 29.84 in 10.0 mi WNW 11.5 mph 17.3 mph N/A   Overcast
11:35 AM 44.6 °F 38.8 °F 37.4 °F 76% 29.83 in 10.0 mi WNW 11.5 mph - N/A   Overcast
11:55 AM 42.8 °F 35.4 °F 35.6 °F 76% 29.86 in 10.0 mi NW 15.0 mph 21.9 mph N/A   Overcast
12:15 PM 41.0 °F 34.3 °F 35.6 °F 81% 29.86 in 10.0 mi NW 11.5 mph 19.6 mph N/A   Overcast
12:35 PM 41.0 °F 34.3 °F 35.6 °F 81% 29.86 in 10.0 mi NW 11.5 mph - N/A   Overcast
12:55 PM 41.0 °F 34.3 °F 33.8 °F 76% 29.87 in 10.0 mi NNW 11.5 mph - N/A   Overcast
1:15 PM 41.0 °F 33.5 °F 33.8 °F 76% 29.87 in 10.0 mi NNW 13.8 mph - N/A   Overcast
1:35 PM 41.0 °F 33.1 °F 32.0 °F 70% 29.87 in 10.0 mi NNW 15.0 mph - N/A   Overcast
1:55 PM 41.0 °F 34.3 °F 32.0 °F 70% 29.88 in 10.0 mi NNW 11.5 mph - N/A   Overcast
2:15 PM 41.0 °F 33.9 °F 32.0 °F 70% 29.89 in 10.0 mi NNW 12.7 mph - N/A   Overcast
2:35 PM 41.0 °F 33.9 °F 32.0 °F 70% 29.90 in 10.0 mi NNW 12.7 mph - N/A   Overcast
2:55 PM 41.0 °F 34.3 °F 32.0 °F 70% 29.92 in 10.0 mi NNW 11.5 mph - N/A   Overcast
3:15 PM 41.0 °F 35.8 °F 33.8 °F 76% 29.92 in 10.0 mi NW 8.1 mph - N/A   Overcast
3:35 PM 41.0 °F 36.4 °F 32.0 °F 70% 29.93 in 10.0 mi NNW 6.9 mph - N/A   Overcast
3:55 PM 41.0 °F 36.4 °F 32.0 °F 70% 29.93 in 10.0 mi NNW 6.9 mph - N/A   Overcast
4:15 PM 41.0 °F 35.8 °F 32.0 °F 70% 29.94 in 10.0 mi NNW 8.1 mph - N/A   Overcast
4:35 PM 41.0 °F 36.4 °F 32.0 °F 70% 29.94 in 10.0 mi NW 6.9 mph - N/A   Overcast
4:55 PM 41.0 °F 37.1 °F 32.0 °F 70% 29.94 in 10.0 mi NW 5.8 mph - N/A   Overcast
5:15 PM 41.0 °F 39.0 °F 32.0 °F 70% 29.95 in 10.0 mi NW 3.5 mph - N/A   Overcast
5:35 PM 41.0 °F - 32.0 °F 70% 29.95 in 10.0 mi Calm Calm - N/A   Mostly Cloudy
5:55 PM 41.0 °F - 32.0 °F 70% 29.96 in 10.0 mi Calm Calm - N/A   Overcast
6:15 PM 41.0 °F - 32.0 °F 70% 29.96 in 10.0 mi Calm Calm - N/A   Overcast
6:35 PM 41.0 °F - 32.0 °F 70% 29.97 in 10.0 mi Calm Calm - N/A   Overcast
6:55 PM 41.0 °F 39.0 °F 32.0 °F 70% 29.97 in 10.0 mi West 3.5 mph - N/A   Overcast
7:15 PM 41.0 °F - 32.0 °F 70% 29.97 in 10.0 mi Calm Calm - N/A   Overcast
7:35 PM 39.2 °F - 32.0 °F 75% 29.98 in 10.0 mi Calm Calm - N/A   Overcast
7:55 PM 41.0 °F - 32.0 °F 70% 29.99 in 10.0 mi Calm Calm - N/A   Overcast
8:15 PM 41.0 °F 39.0 °F 32.0 °F 70% 30.00 in 10.0 mi West 3.5 mph - N/A   Overcast
8:35 PM 41.0 °F 39.0 °F 32.0 °F 70% 30.00 in 10.0 mi West 3.5 mph - N/A   Overcast
8:55 PM 41.0 °F - 32.0 °F 70% 30.01 in 10.0 mi Calm Calm - N/A   Overcast
9:15 PM 41.0 °F 39.0 °F 32.0 °F 70% 30.01 in 10.0 mi WSW 3.5 mph - N/A   Overcast
9:35 PM 41.0 °F 39.0 °F 32.0 °F 70% 30.02 in 10.0 mi WSW 3.5 mph - N/A   Overcast
9:55 PM 41.0 °F 38.0 °F 32.0 °F 70% 30.02 in 10.0 mi West 4.6 mph - N/A   Overcast
10:15 PM 41.0 °F - 32.0 °F 70% 30.02 in 10.0 mi Calm Calm - N/A   Overcast
10:35 PM 41.0 °F - 32.0 °F 70% 30.03 in 10.0 mi Calm Calm - N/A   Overcast
10:55 PM 41.0 °F 38.0 °F 32.0 °F 70% 30.03 in 10.0 mi West 4.6 mph - N/A   Overcast
11:15 PM 41.0 °F 39.0 °F 32.0 °F 70% 30.03 in 10.0 mi West 3.5 mph - N/A   Overcast
11:35 PM 41.0 °F 39.0 °F 32.0 °F 70% 30.03 in 10.0 mi West 3.5 mph - N/A   Overcast
11:55 PM 41.0 °F - 32.0 °F 70% 30.03 in 10.0 mi Calm Calm - N/A   Overcast